FW1340 Weather Reports


Display with metric or nautical units.
time (UTC)temp
F
wind
direction
speed
MPH
gust
MPH
rain 1hr
in
rain 24hr
in
rain mn
in
humidity
%
barometer
mb
20260510030103 75 244 0.0 0.0 0.00 0.00 0.00 56 1011.0
20260510024555 77 240 0.0 0.0 0.00 0.00 0.00 57 1010.9
20260510023053 78 257 0.0 0.0 0.00 0.00 0.00 53 1010.8
20260510021552 79 269 0.0 0.0 0.00 0.00 0.00 52 1010.8
20260510020052 80 259 0.0 0.0 0.00 0.00 0.00 51 1010.9
20260510014551 81 260 0.0 0.0 0.00 0.00 0.00 50 1010.9
20260510013054 82 257 0.0 0.0 0.00 0.00 0.00 49 1010.9
20260510011550 83 269 0.0 0.0 0.00 0.00 0.00 48 1010.9
20260510010049 84 279 0.0 0.0 0.00 0.00 0.00 48 1010.9
20260510004549 85 272 0.0 0.0 0.00 0.00 0.00 46 1010.9
20260510003056 86 279 0.0 0.0 0.00 0.00 0.00 44 1010.9
20260510001550 87 251 0.0 0.0 0.00 0.00 0.00 42 1010.9
20260510000046 88 296 0.0 0.0 0.00 0.00 0.00 43 1010.9
20260509234600 88 273 0.0 0.0 0.00 0.00 0.00 43 1011.0
20260509233053 89 250 0.0 0.0 0.00 0.00 0.00 41 1011.2
20260509231601 89 220 0.0 0.0 0.00 0.00 0.00 41 1011.2
20260509230039 88 273 0.0 0.0 0.00 0.00 0.00 41 1011.3
20260509224537 88 246 0.0 0.0 0.00 0.00 0.00 42 1011.5
20260509223037 88 271 0.0 0.0 0.00 0.00 0.00 43 1011.7
20260509221532 88 300 0.0 0.0 0.00 0.00 0.00 44 1011.9
20260509220034 87 286 0.0 0.0 0.00 0.00 0.00 43 1011.9
20260509214529 87 284 0.0 0.0 0.00 0.00 0.00 46 1012.0
20260509213026 86 277 0.0 0.0 0.00 0.00 0.00 46 1012.2
20260509211523 86 276 0.0 0.0 0.00 0.00 0.00 47 1012.4
20260509210023 85 340 0.0 0.0 0.00 0.00 0.00 46 1012.6
20260509204515 84 331 0.0 0.0 0.00 0.00 0.00 49 1012.7
20260509203011 83 261 0.0 0.0 0.00 0.00 0.00 51 1012.9
20260509201507 82 238 0.0 0.0 0.00 0.00 0.00 54 1013.0
20260509200003 82 360 0.0 0.0 0.00 0.00 0.00 53 1013.2
20260509194600 81 287 0.0 0.0 0.00 0.00 0.00 54 1013.4
20260509193100 80 281 0.0 0.0 0.00 0.00 0.00 56 1013.5
20260509191556 80 314 0.0 0.0 0.00 0.00 0.00 56 1013.7
20260509190057 79 314 0.0 0.0 0.00 0.00 0.00 60 1014.0
20260509184547 78 330 0.0 0.0 0.00 0.00 0.00 60 1014.2
20260509183041 77 321 0.0 0.0 0.00 0.00 0.00 62 1014.2
20260509181537 76 273 0.0 0.0 0.00 0.00 0.00 62 1014.3
20260509180032 75 334 0.0 0.0 0.00 0.00 0.00 63 1014.5
20260509174529 73 266 0.0 0.0 0.00 0.00 0.00 64 1014.6
20260509173029 72 252 0.0 0.0 0.00 0.00 0.00 65 1014.4
20260509171530 71 342 0.0 0.0 0.00 0.00 0.00 65 1014.6
20260509170019 70 313 0.0 0.0 0.00 0.00 0.00 66 1014.6
20260509164514 70 323 0.0 0.0 0.00 0.00 0.00 67 1014.7
20260509163016 69 310 0.0 0.0 0.00 0.00 0.00 67 1014.7
20260509161510 69 252 0.0 0.0 0.00 0.00 0.00 67 1014.7
20260509160002 67 236 0.0 0.0 0.00 0.00 0.00 68 1014.6
20260509154608 66 93 0.0 0.0 0.00 0.00 0.00 71 1014.6
20260509153054 65 118 0.0 0.0 0.00 0.00 0.00 74 1014.7
20260509151552 63 129 0.0 0.0 0.00 0.00 0.00 78 1014.6
20260509150057 61 96 0.0 0.0 0.00 0.00 0.00 84 1014.8
20260509144544 59 128 0.0 0.0 0.00 0.00 0.00 86 1014.8
20260509143047 58 132 0.0 0.0 0.00 0.00 0.00 90 1014.8
20260509141536 56 98 0.0 0.0 0.00 0.00 0.00 92 1014.8
20260509140031 55 94 0.0 0.0 0.00 0.00 0.00 93 1014.7
20260509134526 53 5 0.0 0.0 0.00 0.00 0.00 92 1014.6
20260509133023 52 317 0.0 0.0 0.00 0.00 0.00 91 1014.5
20260509131519 52 317 0.0 0.0 0.00 0.00 0.00 90 1014.4
20260509130018 53 317 0.0 0.0 0.00 0.00 0.00 89 1014.1
20260509124515 53 317 0.0 0.0 0.00 0.00 0.00 90 1014.0
20260509123014 53 317 0.0 0.0 0.00 0.00 0.00 90 1014.0
20260509121517 53 317 0.0 0.0 0.00 0.00 0.00 90 1014.1
20260509120013 53 317 0.0 0.0 0.00 0.00 0.00 89 1014.0
20260509114529 53 338 0.0 0.0 0.00 0.00 0.00 89 1014.0
20260509113011 54 338 0.0 0.0 0.00 0.00 0.00 89 1014.2
20260509111509 54 338 0.0 0.0 0.00 0.00 0.00 88 1014.0
20260509110006 54 271 0.0 0.0 0.00 0.00 0.00 88 1013.9
20260509104505 55 271 0.0 0.0 0.00 0.00 0.00 88 1014.1
20260509103004 55 271 0.0 0.0 0.00 0.00 0.00 87 1014.0
20260509101504 55 271 0.0 0.0 0.00 0.00 0.00 86 1014.2
20260509100059 55 271 0.0 0.0 0.00 0.00 0.00 86 1014.3
20260509094603 55 271 0.0 0.0 0.00 0.00 0.00 86 1014.4
20260509093056 56 271 0.0 0.0 0.00 0.00 0.00 85 1014.3
20260509091559 56 271 0.0 0.0 0.00 0.00 0.00 84 1014.3
20260509090106 56 271 0.0 0.0 0.00 0.00 0.00 85 1014.3
20260509084550 57 271 0.0 0.0 0.00 0.00 0.00 84 1014.4
20260509083053 57 271 0.0 0.0 0.00 0.00 0.00 84 1014.5
20260509081546 58 271 0.0 0.0 0.00 0.00 0.00 83 1014.6
20260509080103 58 271 0.0 0.0 0.00 0.00 0.00 83 1014.6
20260509074543 58 271 0.0 0.0 0.00 0.00 0.00 83 1014.6
20260509073040 59 271 0.0 0.0 0.00 0.00 0.00 81 1014.7
20260509071537 59 271 0.0 0.0 0.00 0.00 0.00 80 1014.6
20260509070038 60 271 0.0 0.0 0.00 0.00 0.00 80 1014.5
20260509064534 60 271 0.0 0.0 0.00 0.00 0.00 79 1014.6
20260509063034 61 271 0.0 0.0 0.00 0.00 0.00 77 1014.6
20260509061535 61 271 0.0 0.0 0.00 0.00 0.00 77 1014.5
20260509060034 62 232 0.0 0.0 0.00 0.00 0.00 77 1014.6
20260509054532 62 248 0.0 0.0 0.00 0.00 0.00 76 1014.5
20260509053040 63 271 0.0 0.0 0.00 0.00 0.00 75 1014.5
20260509051533 64 265 0.0 0.0 0.00 0.00 0.00 74 1014.4
20260509050047 64 242 0.0 0.0 0.00 0.00 0.00 73 1014.3
20260509044534 65 281 0.0 0.0 0.00 0.00 0.00 74 1014.2
20260509043039 66 245 0.0 0.0 0.00 0.00 0.00 72 1014.1
20260509041530 66 246 0.0 0.0 0.00 0.00 0.00 70 1014.0
20260509040029 67 259 0.0 0.0 0.00 0.00 0.00 69 1013.9
20260509034528 68 252 0.0 0.0 0.00 0.00 0.00 68 1013.9
20260509033036 69 265 0.0 0.0 0.00 0.00 0.00 68 1013.8
20260509031531 70 223 0.0 0.0 0.00 0.00 0.00 67 1013.7